Weather History for Thedford, NE

Change the Weather History Date:

Saturday, August 9, 2014

  Actual Average (KLBF) Record (KLBF)
Temperature  
Mean Temperature 71 °F 74 °F  
Max Temperature 83 °F 87 °F 105 °F (1937)
Min Temperature 59 °F 60 °F 48 °F (1987)
Degree Days  
Heating Degree Days 0 0  
Month to date heating degree days 0  
Since 1 June heating degree days 56  
Since 1 July heating degree days 5  
Cooling Degree Days 6 9  
Month to date cooling degree days 82  
Year to date cooling degree days 541  
Since 1 June cooling degree days 513  
Growing Degree Days 21 (Base 50)    
Moisture  
Dew Point 64 °F    
Average Humidity 87    
Maximum Humidity 98    
Minimum Humidity 59    
Precipitation  
Precipitation 0.20 in 0.09 in 2.15 in (1923)
Month to date precipitation 0.86  
Year to date precipitation 14.79  
Snow  
Snow 0.00 in 0.00 in 0.00 in (2002)
Month to date snowfall 0.0  
Since 1 June snowfall 0.0  
Since 1 July snowfall 0.0  
Snow Depth -    
Sea Level Pressure  
Sea Level Pressure 30.02 in    
Wind  
Wind Speed 4 mph (South)    
Max Wind Speed 16 mph    
Max Gust Speed 18 mph    
Visibility 9 miles    
Events Thunderstorm    
T = Trace of Precipitation, MM = Missing Value Source: NWS Daily Summary

Daily Weather History Graph

Daily Weather History Graph

Search for Another Location

Airport:

Trip Planner

Search our weather history database for the weather conditions in past years. The results will help you decide how hot, cold, wet, or windy it might be!

Date:

Astronomy

Aug. 09, 2014 Rise Set
Actual Time 6:44 AM CDT 8:50 PM CDT
Civil Twilight 6:13 AM CDT 9:21 PM CDT
Nautical Twilight 5:35 AM CDT 9:58 PM CDT
Astronomical Twilight 4:54 AM CDT 10:39 PM CDT
Moon 7:53 PM CDT (8/9) 5:26 AM CDT (8/9)
Length of Visible Light 15h 07m
Length of Day
14h 06m
Waxing Gibbous, 98% of the Moon is Illuminated
Aug 9
Waxing Gibbous
Aug 10
Full
Aug 17
Last Quarter
Aug 25
New
Sep 2
First Quarter

Hourly Weather History & Observations

Time (CDT) Temp. Heat Index Dew Point Humidity Pressure Visibility Wind Dir Wind Speed Gust Speed Precip Events Conditions
12:15 AM 62.4 °F - 61.0 °F 95% 30.02 in 10.0 mi Calm Calm - N/A   Clear
12:35 AM 62.8 °F - 61.7 °F 96% 30.03 in 10.0 mi SSE 6.9 mph - N/A   Clear
12:55 AM 62.2 °F - 61.0 °F 96% 30.03 in 10.0 mi ESE 3.5 mph - N/A   Clear
1:15 AM 62.1 °F - 60.8 °F 96% 30.03 in 10.0 mi Calm Calm - N/A   Clear
1:35 AM 61.9 °F - 60.4 °F 95% 30.03 in 10.0 mi Calm Calm - N/A   Clear
1:55 AM 60.8 °F - 59.9 °F 97% 30.01 in 10.0 mi NW 3.5 mph - N/A   Clear
2:15 AM 61.2 °F - 60.3 °F 97% 30.03 in 10.0 mi NNE 3.5 mph - N/A   Scattered Clouds
2:35 AM 61.0 °F - 60.1 °F 97% 30.01 in 10.0 mi Calm Calm - N/A   Scattered Clouds
2:55 AM 60.3 °F - 59.5 °F 97% 30.02 in 10.0 mi East 3.5 mph - N/A   Clear
3:15 AM 60.6 °F - 59.9 °F 97% 30.03 in 10.0 mi SE 4.6 mph - N/A   Clear
3:35 AM 60.4 °F - 59.9 °F 98% 30.03 in 10.0 mi SE 3.5 mph - N/A   Clear
3:55 AM 61.0 °F - 60.3 °F 97% 30.02 in 7.0 mi SE 4.6 mph - N/A   Mostly Cloudy
4:15 AM 61.2 °F - 60.4 °F 97% 30.02 in 5.0 mi SSE 4.6 mph - N/A   Mostly Cloudy
4:35 AM 61.7 °F - 60.8 °F 97% 30.02 in 7.0 mi SE 6.9 mph - N/A   Scattered Clouds
4:55 AM 61.7 °F - 60.8 °F 97% 30.01 in 7.0 mi South 3.5 mph - N/A   Clear
5:15 AM 61.7 °F - 60.8 °F 97% 30.01 in 10.0 mi Calm Calm - N/A   Clear
5:35 AM 61.7 °F - 60.6 °F 96% 30.02 in 10.0 mi Calm Calm - N/A   Clear
5:55 AM 61.2 °F - 60.1 °F 96% 30.03 in 10.0 mi Calm Calm - N/A   Clear
6:15 AM 60.8 °F - 59.9 °F 97% 30.03 in 7.0 mi Calm Calm - N/A   Clear
6:35 AM 60.3 °F - 59.5 °F 97% 30.03 in 7.0 mi Calm Calm - N/A   Clear
6:55 AM 59.9 °F - 59.2 °F 97% 30.03 in 5.0 mi Calm Calm - N/A   Clear
7:15 AM 60.3 °F - 59.5 °F 97% 30.03 in 10.0 mi South 3.5 mph - N/A   Clear
7:35 AM 61.2 °F - 60.4 °F 97% 30.03 in 10.0 mi Calm Calm - N/A   Clear
7:55 AM 63.3 °F - 61.7 °F 94% 30.02 in 10.0 mi South 3.5 mph - N/A   Clear
8:15 AM 64.9 °F - 62.2 °F 91% 30.02 in 10.0 mi SSW 4.6 mph - N/A   Clear
8:35 AM 66.2 °F - 61.9 °F 86% 30.02 in 10.0 mi SSW 9.2 mph - N/A   Clear
8:55 AM 68.2 °F - 62.1 °F 81% 30.02 in 10.0 mi SSW 10.4 mph - N/A   Clear
9:15 AM 69.4 °F - 63.0 °F 80% 30.02 in 10.0 mi SSW 12.7 mph 18.4 mph N/A   Clear
9:35 AM 70.9 °F - 63.7 °F 78% 30.03 in 10.0 mi SSW 13.8 mph - N/A   Mostly Cloudy
9:55 AM 71.1 °F - 64.2 °F 79% 30.03 in 10.0 mi SSW 13.8 mph - N/A   Overcast
10:15 AM 70.9 °F - 64.8 °F 81% 30.03 in 10.0 mi South 10.4 mph - N/A   Overcast
10:35 AM 72.1 °F - 65.1 °F 78% 30.03 in 10.0 mi South 9.2 mph - N/A   Overcast
10:55 AM 73.0 °F - 65.8 °F 78% 30.02 in 10.0 mi South 10.4 mph - N/A   Overcast
11:15 AM 74.7 °F - 66.4 °F 75% 30.02 in 10.0 mi South 12.7 mph - N/A   Overcast
11:35 AM 75.4 °F - 66.7 °F 74% 30.02 in 10.0 mi South 11.5 mph - N/A   Mostly Cloudy
11:55 AM 78.1 °F - 67.5 °F 70% 30.02 in 10.0 mi South 9.2 mph - N/A   Scattered Clouds
12:15 PM 78.8 °F - 67.6 °F 68% 30.02 in 10.0 mi SSE 11.5 mph - N/A   Mostly Cloudy
12:35 PM 80.2 °F 83.0 °F 68.2 °F 67% 30.02 in 10.0 mi SSE 6.9 mph - N/A   Scattered Clouds
12:55 PM 81.3 °F 84.1 °F 68.2 °F 64% 30.02 in 10.0 mi South 12.7 mph 16.1 mph N/A   Scattered Clouds
1:15 PM 81.5 °F 84.2 °F 68.0 °F 63% 30.01 in 10.0 mi SSE 9.2 mph - N/A   Scattered Clouds
1:35 PM 83.3 °F 86.2 °F 67.8 °F 59% 30.02 in 10.0 mi South 9.2 mph - N/A   Scattered Clouds
1:55 PM 81.7 °F 84.2 °F 67.3 °F 61% 30.02 in 10.0 mi SSW 10.4 mph - N/A   Mostly Cloudy
2:15 PM 81.7 °F 84.5 °F 67.8 °F 63% 30.01 in 10.0 mi SE 6.9 mph - N/A   Overcast
2:35 PM 82.4 °F 85.4 °F 68.0 °F 62% 29.99 in 10.0 mi SE 9.2 mph - N/A   Overcast
2:55 PM 80.6 °F 83.2 °F 68.0 °F 65% 30.01 in 10.0 mi East 9.2 mph - N/A Thunderstorm Thunderstorm
3:15 PM 79.3 °F - 68.2 °F 69% 30.00 in 1.8 mi SE 6.9 mph - N/A Thunderstorm Thunderstorm
3:35 PM 76.6 °F - 69.8 °F 79% 30.00 in 10.0 mi SE 5.8 mph - N/A Thunderstorm Thunderstorm
4:15 PM 74.5 °F - 70.9 °F 88% 30.00 in 5.0 mi West 3.5 mph - 0.05 in Thunderstorm Overcast
4:35 PM 72.3 °F - 66.2 °F 81% 30.00 in 4.0 mi South 15.0 mph - 0.16 in Thunderstorm Thunderstorm
4:55 PM 70.0 °F - 65.3 °F 85% 30.00 in 10.0 mi SSW 16.1 mph - 0.19 in Thunderstorm Thunderstorm
5:15 PM 68.0 °F - 62.8 °F 83% 29.99 in 10.0 mi Calm Calm - 0.01 in   Overcast
5:35 PM 68.0 °F - 63.5 °F 85% 29.99 in 10.0 mi Calm Calm - 0.01 in Thunderstorm Scattered Clouds
5:55 PM 68.2 °F - 65.3 °F 90% 29.98 in 10.0 mi Calm Calm - 0.01 in Thunderstorm Clear
6:15 PM 66.7 °F - 64.6 °F 93% 29.96 in 10.0 mi NW 4.6 mph - N/A   Clear
6:30 PM 66.7 °F - 64.8 °F 93% 29.98 in 10.0 mi WNW 4.6 mph - N/A   Clear
6:55 PM 68.2 °F - 64.6 °F 88% 30.00 in 10.0 mi Calm Calm - N/A Thunderstorm Scattered Clouds
7:15 PM 68.2 °F - 64.8 °F 89% 30.01 in 10.0 mi Calm Calm - N/A   Mostly Cloudy
7:35 PM 68.4 °F - 66.0 °F 92% 29.99 in 10.0 mi Calm Calm - N/A   Mostly Cloudy
7:55 PM 68.0 °F - 65.8 °F 93% 30.01 in 10.0 mi NW 5.8 mph - N/A   Scattered Clouds
8:15 PM 68.0 °F - 66.0 °F 93% 29.99 in 10.0 mi SSW 3.5 mph - N/A   Mostly Cloudy
8:35 PM 68.0 °F - 66.2 °F 94% 30.00 in 10.0 mi Calm Calm - N/A   Scattered Clouds
8:55 PM 68.2 °F - 66.4 °F 94% 30.00 in 10.0 mi North 5.8 mph - N/A   Scattered Clouds
9:15 PM 68.9 °F - 67.8 °F 96% 30.05 in 10.0 mi WNW 5.8 mph - N/A   Mostly Cloudy
9:35 PM 70.0 °F - 68.9 °F 96% 30.05 in 10.0 mi NW 5.8 mph - N/A   Overcast
9:55 PM 69.8 °F - 68.4 °F 95% 30.04 in 10.0 mi WNW 6.9 mph - N/A   Scattered Clouds
10:15 PM 69.8 °F - 68.5 °F 96% 30.04 in 10.0 mi West 6.9 mph - N/A   Mostly Cloudy
11:15 PM 68.9 °F - 67.6 °F 96% 30.04 in 7.0 mi ENE 5.8 mph - N/A   Mostly Cloudy
11:35 PM 69.3 °F - 68.4 °F 97% 30.05 in 7.0 mi Calm Calm - N/A   Overcast
11:55 PM 69.1 °F - 68.2 °F 97% 30.05 in 7.0 mi NNE 5.8 mph - N/A   Overcast